Year,Month,Day,Hour,Minute,Value (Times are PST for temperature in C)
2019,05,26,00,00,11.20
2019,05,26,00,01,11.20
2019,05,26,00,02,11.20
2019,05,26,00,03,11.20
2019,05,26,00,04,11.20
2019,05,26,00,05,11.20
2019,05,26,00,06,11.10
2019,05,26,00,07,11.10
2019,05,26,00,08,11.10
2019,05,26,00,09,11.10
2019,05,26,00,10,11.10
2019,05,26,00,11,11.10
2019,05,26,00,12,11.10
2019,05,26,00,13,11.10
2019,05,26,00,14,11.10
2019,05,26,00,15,11.10
2019,05,26,00,16,11.10
2019,05,26,00,17,11.10
2019,05,26,00,18,11.10
2019,05,26,00,19,11.00
2019,05,26,00,20,11.00
2019,05,26,00,21,11.00
2019,05,26,00,22,11.00
2019,05,26,00,23,11.00
2019,05,26,00,24,11.00
2019,05,26,00,25,11.00
2019,05,26,00,26,11.00
2019,05,26,00,27,11.00
2019,05,26,00,28,11.00
2019,05,26,00,29,11.00
2019,05,26,00,30,11.00
2019,05,26,00,31,11.00
2019,05,26,00,32,11.00
2019,05,26,00,33,10.90
2019,05,26,00,34,10.90
2019,05,26,00,35,10.90
2019,05,26,00,36,11.00
2019,05,26,00,37,10.90
2019,05,26,00,38,10.90
2019,05,26,00,39,10.90
2019,05,26,00,40,10.90
2019,05,26,00,41,10.90
2019,05,26,00,42,10.90
2019,05,26,00,43,10.90
2019,05,26,00,44,10.90
2019,05,26,00,45,10.80
2019,05,26,00,46,10.80
2019,05,26,00,47,10.80
2019,05,26,00,48,10.80
2019,05,26,00,49,10.80
2019,05,26,00,50,10.80
2019,05,26,00,51,10.80
2019,05,26,00,52,10.80
2019,05,26,00,53,10.80
2019,05,26,00,54,10.80
2019,05,26,00,55,10.80
2019,05,26,00,56,10.80
2019,05,26,00,57,10.80
2019,05,26,00,58,10.80
2019,05,26,00,59,10.80
2019,05,26,01,00,10.80
2019,05,26,01,01,10.80
2019,05,26,01,02,10.70
2019,05,26,01,03,10.70
2019,05,26,01,04,10.70
2019,05,26,01,05,10.70
2019,05,26,01,06,10.70
2019,05,26,01,07,10.60
2019,05,26,01,08,10.60
2019,05,26,01,09,10.60
2019,05,26,01,10,10.60
2019,05,26,01,11,10.60
2019,05,26,01,12,10.60
2019,05,26,01,13,10.60
2019,05,26,01,14,10.60
2019,05,26,01,15,10.60
2019,05,26,01,16,10.60
2019,05,26,01,17,10.60
2019,05,26,01,18,10.60
2019,05,26,01,19,10.60
2019,05,26,01,20,10.60
2019,05,26,01,21,10.60
2019,05,26,01,22,10.60
2019,05,26,01,23,10.60
2019,05,26,01,24,10.60
2019,05,26,01,25,10.60
2019,05,26,01,26,10.60
2019,05,26,01,27,10.60
2019,05,26,01,28,10.60
2019,05,26,01,29,10.60
2019,05,26,01,30,10.50
2019,05,26,01,31,10.50
2019,05,26,01,32,10.50
2019,05,26,01,33,10.50
2019,05,26,01,34,10.50
2019,05,26,01,35,10.50
2019,05,26,01,36,10.50
2019,05,26,01,37,10.50
2019,05,26,01,38,10.40
2019,05,26,01,39,10.40
2019,05,26,01,40,10.40
2019,05,26,01,41,10.40
2019,05,26,01,42,10.40
2019,05,26,01,43,10.40
2019,05,26,01,44,10.40
2019,05,26,01,45,10.40
2019,05,26,01,46,10.40
2019,05,26,01,47,10.40
2019,05,26,01,48,10.40
2019,05,26,01,49,10.40
2019,05,26,01,50,10.40
2019,05,26,01,51,10.40
2019,05,26,01,52,10.40
2019,05,26,01,53,10.40
2019,05,26,01,54,10.40
2019,05,26,01,55,10.40
2019,05,26,01,56,10.40
2019,05,26,01,57,10.40
2019,05,26,01,58,10.40
2019,05,26,01,59,10.40
2019,05,26,02,00,10.40
2019,05,26,02,01,10.40
2019,05,26,02,02,10.40
2019,05,26,02,03,10.40
2019,05,26,02,04,10.40
2019,05,26,02,05,10.40
2019,05,26,02,06,10.40
2019,05,26,02,07,10.40
2019,05,26,02,08,10.40
2019,05,26,02,09,10.40
2019,05,26,02,10,10.40
2019,05,26,02,11,10.30
2019,05,26,02,12,10.30
2019,05,26,02,13,10.30
2019,05,26,02,14,10.30
2019,05,26,02,15,10.30
2019,05,26,02,16,10.30
2019,05,26,02,17,10.30
2019,05,26,02,18,10.30
2019,05,26,02,19,10.30
2019,05,26,02,20,10.30
2019,05,26,02,21,10.30
2019,05,26,02,22,10.30
2019,05,26,02,23,10.30
2019,05,26,02,24,10.30
2019,05,26,02,25,10.30
2019,05,26,02,26,10.30
2019,05,26,02,27,10.30
2019,05,26,02,28,10.30
2019,05,26,02,29,10.30
2019,05,26,02,30,10.30
2019,05,26,02,31,10.30
2019,05,26,02,32,10.30
2019,05,26,02,33,10.30
2019,05,26,02,34,10.30
2019,05,26,02,35,10.30
2019,05,26,02,36,10.30
2019,05,26,02,37,10.30
2019,05,26,02,38,10.30
2019,05,26,02,39,10.30
2019,05,26,02,40,10.30
2019,05,26,02,41,10.30
2019,05,26,02,42,10.30
2019,05,26,02,43,10.30
2019,05,26,02,44,10.30
2019,05,26,02,45,10.20
2019,05,26,02,46,10.20
2019,05,26,02,47,10.20
2019,05,26,02,48,10.20
2019,05,26,02,49,10.20
2019,05,26,02,50,10.20
2019,05,26,02,51,10.20
2019,05,26,02,52,10.20
2019,05,26,02,53,10.20
2019,05,26,02,54,10.20
2019,05,26,02,55,10.20
2019,05,26,02,56,10.20
2019,05,26,02,57,10.20
2019,05,26,02,58,10.20
2019,05,26,02,59,10.20
2019,05,26,03,00,10.20
2019,05,26,03,01,10.20
2019,05,26,03,02,10.20
2019,05,26,03,03,10.10
2019,05,26,03,04,10.10
2019,05,26,03,05,10.10
2019,05,26,03,06,10.10
2019,05,26,03,07,10.10
2019,05,26,03,08,10.10
2019,05,26,03,09,10.10
2019,05,26,03,10,10.10
2019,05,26,03,11,10.10
2019,05,26,03,12,10.10
2019,05,26,03,13,10.10
2019,05,26,03,14,10.10
2019,05,26,03,15,10.20
2019,05,26,03,16,10.20
2019,05,26,03,17,10.20
2019,05,26,03,18,10.20
2019,05,26,03,19,10.20
2019,05,26,03,20,10.20
2019,05,26,03,21,10.20
2019,05,26,03,22,10.20
2019,05,26,03,23,10.10
2019,05,26,03,24,10.10
2019,05,26,03,25,10.00
2019,05,26,03,26,10.00
2019,05,26,03,27,10.00
2019,05,26,03,28,9.90
2019,05,26,03,29,9.90
2019,05,26,03,30,9.90
2019,05,26,03,31,9.80
2019,05,26,03,32,9.80
2019,05,26,03,33,9.80
2019,05,26,03,34,9.80
2019,05,26,03,35,9.80
2019,05,26,03,36,9.80
2019,05,26,03,37,9.80
2019,05,26,03,38,9.80
2019,05,26,03,39,9.80
2019,05,26,03,40,9.80
2019,05,26,03,41,9.80
2019,05,26,03,42,9.80
2019,05,26,03,43,9.80
2019,05,26,03,44,9.80
2019,05,26,03,45,9.90
2019,05,26,03,46,9.90
2019,05,26,03,47,9.90
2019,05,26,03,48,9.90
2019,05,26,03,49,9.90
2019,05,26,03,50,9.90
2019,05,26,03,51,9.90
2019,05,26,03,52,10.00
2019,05,26,03,53,10.00
2019,05,26,03,54,10.00
2019,05,26,03,55,10.00
2019,05,26,03,56,10.00
2019,05,26,03,57,10.00
2019,05,26,03,58,10.00
2019,05,26,03,59,10.00
2019,05,26,04,00,10.00
2019,05,26,04,01,10.00
2019,05,26,04,02,10.00
2019,05,26,04,03,10.00
2019,05,26,04,04,10.00
2019,05,26,04,05,10.00
2019,05,26,04,06,10.00
2019,05,26,04,07,10.00
2019,05,26,04,08,9.90
2019,05,26,04,09,9.90
2019,05,26,04,10,9.90
2019,05,26,04,11,9.90
2019,05,26,04,12,9.90
2019,05,26,04,13,9.90
2019,05,26,04,14,9.90
2019,05,26,04,15,9.90
2019,05,26,04,16,9.90
2019,05,26,04,17,9.90
2019,05,26,04,18,9.90
2019,05,26,04,19,9.90
2019,05,26,04,20,9.90
2019,05,26,04,21,9.90
2019,05,26,04,22,9.90
2019,05,26,04,23,9.90
2019,05,26,04,24,9.90
2019,05,26,04,25,9.90
2019,05,26,04,26,9.90
2019,05,26,04,27,9.80
2019,05,26,04,28,9.80
2019,05,26,04,29,9.80
2019,05,26,04,30,9.80
2019,05,26,04,31,9.80
2019,05,26,04,32,9.80
2019,05,26,04,33,9.80
2019,05,26,04,34,9.80
2019,05,26,04,35,9.80
2019,05,26,04,36,9.80
2019,05,26,04,37,9.70
2019,05,26,04,38,9.70
2019,05,26,04,39,9.70
2019,05,26,04,40,9.70
2019,05,26,04,41,9.70
2019,05,26,04,42,9.70
2019,05,26,04,43,9.70
2019,05,26,04,44,9.70
2019,05,26,04,45,9.70
2019,05,26,04,46,9.70
2019,05,26,04,47,9.70
2019,05,26,04,48,9.60
2019,05,26,04,49,9.60
2019,05,26,04,50,9.60
2019,05,26,04,51,9.60
2019,05,26,04,52,9.60
2019,05,26,04,53,9.50
2019,05,26,04,54,9.50
2019,05,26,04,55,9.40
2019,05,26,04,56,9.40
2019,05,26,04,57,9.40
2019,05,26,04,58,9.40
2019,05,26,04,59,9.30
2019,05,26,05,00,9.30
2019,05,26,05,01,9.30
2019,05,26,05,02,9.30
2019,05,26,05,03,9.30
2019,05,26,05,04,9.30
2019,05,26,05,05,9.30
2019,05,26,05,06,9.30
2019,05,26,05,07,9.30
2019,05,26,05,08,9.30
2019,05,26,05,09,9.30
2019,05,26,05,10,9.30
2019,05,26,05,11,9.30
2019,05,26,05,12,9.40
2019,05,26,05,13,9.40
2019,05,26,05,14,9.40
2019,05,26,05,15,9.40
2019,05,26,05,16,9.40
2019,05,26,05,17,9.40
2019,05,26,05,18,9.40
2019,05,26,05,19,9.40
2019,05,26,05,20,9.40
2019,05,26,05,21,9.50
2019,05,26,05,22,9.50
2019,05,26,05,23,9.60
2019,05,26,05,24,9.60
2019,05,26,05,25,9.50
2019,05,26,05,26,9.50
2019,05,26,05,27,9.50
2019,05,26,05,28,9.50
2019,05,26,05,29,9.40
2019,05,26,05,30,9.40
2019,05,26,05,31,9.30
2019,05,26,05,32,9.30
2019,05,26,05,33,9.30
2019,05,26,05,34,9.30
2019,05,26,05,35,9.20
2019,05,26,05,36,9.20
2019,05,26,05,37,9.20
2019,05,26,05,38,9.20
2019,05,26,05,39,9.20
2019,05,26,05,40,9.20
2019,05,26,05,41,9.20
2019,05,26,05,42,9.20
2019,05,26,05,43,9.20
2019,05,26,05,44,9.20
2019,05,26,05,45,9.20
2019,05,26,05,46,9.20
2019,05,26,05,47,9.20
2019,05,26,05,48,9.20
2019,05,26,05,49,9.20
2019,05,26,05,50,9.30
2019,05,26,05,51,9.30
2019,05,26,05,52,9.30
2019,05,26,05,53,9.40
2019,05,26,05,54,9.40
2019,05,26,05,55,9.40
2019,05,26,05,56,9.50
2019,05,26,05,57,9.50
2019,05,26,05,58,9.50
2019,05,26,05,59,9.50
2019,05,26,06,00,9.50
2019,05,26,06,01,9.50
2019,05,26,06,02,9.50
2019,05,26,06,03,9.60
2019,05,26,06,04,9.60
2019,05,26,06,05,9.50
2019,05,26,06,06,9.50
2019,05,26,06,07,9.50
2019,05,26,06,08,9.50
2019,05,26,06,09,9.50
2019,05,26,06,10,9.50
2019,05,26,06,11,9.50
2019,05,26,06,12,9.50
2019,05,26,06,13,9.50
2019,05,26,06,14,9.60
2019,05,26,06,15,9.60
2019,05,26,06,16,9.60
2019,05,26,06,17,9.70
2019,05,26,06,18,9.70
2019,05,26,06,19,9.70
2019,05,26,06,20,9.70
2019,05,26,06,21,9.70
2019,05,26,06,22,9.70
2019,05,26,06,23,9.70
2019,05,26,06,24,9.70
2019,05,26,06,25,9.70
2019,05,26,06,26,9.70
2019,05,26,06,27,9.70
2019,05,26,06,28,9.70
2019,05,26,06,29,9.70
2019,05,26,06,30,9.70
2019,05,26,06,31,9.70
2019,05,26,06,32,9.70
2019,05,26,06,33,9.70
2019,05,26,06,34,9.70
2019,05,26,06,35,9.70
2019,05,26,06,36,9.70
2019,05,26,06,37,9.70
2019,05,26,06,38,9.80
2019,05,26,06,39,9.80
2019,05,26,06,40,9.80
2019,05,26,06,41,9.80
2019,05,26,06,42,9.80
2019,05,26,06,43,9.80
2019,05,26,06,44,9.80
2019,05,26,06,45,9.80
2019,05,26,06,46,9.80
2019,05,26,06,47,9.80
2019,05,26,06,48,9.80
2019,05,26,06,49,9.80
2019,05,26,06,50,9.80
2019,05,26,06,51,9.80
2019,05,26,06,52,9.80
2019,05,26,06,53,9.80
2019,05,26,06,54,9.80
2019,05,26,06,55,9.80
2019,05,26,06,56,9.80
2019,05,26,06,57,9.80
2019,05,26,06,58,9.90
2019,05,26,06,59,9.90
2019,05,26,07,00,9.90
2019,05,26,07,01,9.90
2019,05,26,07,02,10.00
2019,05,26,07,03,10.00
2019,05,26,07,04,10.10
2019,05,26,07,05,10.10
2019,05,26,07,06,10.10
2019,05,26,07,07,10.10
2019,05,26,07,08,10.10
2019,05,26,07,09,10.10
2019,05,26,07,10,10.20
2019,05,26,07,11,10.20
2019,05,26,07,12,10.20
2019,05,26,07,13,10.20
2019,05,26,07,14,10.30
2019,05,26,07,15,10.30
2019,05,26,07,16,10.30
2019,05,26,07,17,10.30
2019,05,26,07,18,10.30
2019,05,26,07,19,10.40
2019,05,26,07,20,10.40
2019,05,26,07,21,10.40
2019,05,26,07,22,10.40
2019,05,26,07,23,10.50
2019,05,26,07,24,10.50
2019,05,26,07,25,10.60
2019,05,26,07,26,10.60
2019,05,26,07,27,10.60
2019,05,26,07,28,10.60
2019,05,26,07,29,10.60
2019,05,26,07,30,10.60
2019,05,26,07,31,10.60
2019,05,26,07,32,10.60
2019,05,26,07,33,10.60
2019,05,26,07,34,10.60
2019,05,26,07,35,10.60
2019,05,26,07,36,10.60
2019,05,26,07,37,10.70
2019,05,26,07,38,10.70
2019,05,26,07,39,10.70
2019,05,26,07,40,10.70
2019,05,26,07,41,10.70
2019,05,26,07,42,10.70
2019,05,26,07,43,10.70
2019,05,26,07,44,10.80
2019,05,26,07,45,10.80
2019,05,26,07,46,10.80
2019,05,26,07,47,10.80
2019,05,26,07,48,10.80
2019,05,26,07,49,10.80
2019,05,26,07,50,10.80
2019,05,26,07,51,10.90
2019,05,26,07,52,10.90
2019,05,26,07,53,11.00
2019,05,26,07,54,11.00
2019,05,26,07,55,11.10
2019,05,26,07,56,11.10
2019,05,26,07,57,11.20
2019,05,26,07,58,11.20
2019,05,26,07,59,11.30
2019,05,26,08,00,11.30
2019,05,26,08,01,11.30
2019,05,26,08,02,11.40
2019,05,26,08,03,11.40
2019,05,26,08,04,11.40
2019,05,26,08,05,11.40
2019,05,26,08,06,11.50
2019,05,26,08,07,11.50
2019,05,26,08,08,11.60
2019,05,26,08,09,11.60
2019,05,26,08,10,11.70
2019,05,26,08,11,11.70
2019,05,26,08,12,11.80
2019,05,26,08,13,11.80
2019,05,26,08,14,11.80
2019,05,26,08,15,11.90
2019,05,26,08,16,12.00
2019,05,26,08,17,12.10
2019,05,26,08,18,12.10
2019,05,26,08,19,12.20
2019,05,26,08,20,12.20
2019,05,26,08,21,12.30
2019,05,26,08,22,12.30
2019,05,26,08,23,12.40
2019,05,26,08,24,12.40
2019,05,26,08,25,12.50
2019,05,26,08,26,12.50
2019,05,26,08,27,12.60
2019,05,26,08,28,12.60
2019,05,26,08,29,12.70
2019,05,26,08,30,12.70
2019,05,26,08,31,12.70
2019,05,26,08,32,12.70
2019,05,26,08,33,12.80
2019,05,26,08,34,12.80
2019,05,26,08,35,12.80
2019,05,26,08,36,12.90
2019,05,26,08,37,12.90
2019,05,26,08,38,13.00
2019,05,26,08,39,13.00
2019,05,26,08,40,13.10
2019,05,26,08,41,13.20
2019,05,26,08,42,13.20
2019,05,26,08,43,13.30
2019,05,26,08,44,13.30
2019,05,26,08,45,13.40
2019,05,26,08,46,13.40
2019,05,26,08,47,13.40
2019,05,26,08,48,13.40
2019,05,26,08,49,13.50
2019,05,26,08,50,13.50
2019,05,26,08,51,13.50
2019,05,26,08,52,13.50
2019,05,26,08,53,13.60
2019,05,26,08,54,13.60
2019,05,26,08,55,13.70
2019,05,26,08,56,13.70
2019,05,26,08,57,13.70
2019,05,26,08,58,13.80
2019,05,26,08,59,13.80
2019,05,26,09,00,13.80
2019,05,26,09,01,13.90
2019,05,26,09,02,13.90
2019,05,26,09,03,13.90
2019,05,26,09,04,14.00
2019,05,26,09,05,14.00
2019,05,26,09,06,13.90
2019,05,26,09,07,14.00
2019,05,26,09,08,14.00
2019,05,26,09,09,14.10
2019,05,26,09,10,14.20
2019,05,26,09,11,14.20
2019,05,26,09,12,14.30
2019,05,26,09,13,14.40
2019,05,26,09,14,14.50
2019,05,26,09,15,14.60
2019,05,26,09,16,14.70
2019,05,26,09,17,14.80
2019,05,26,09,18,14.90
2019,05,26,09,19,15.00
2019,05,26,09,20,15.00
2019,05,26,09,21,15.00
2019,05,26,09,22,15.00
2019,05,26,09,23,15.00
2019,05,26,09,24,15.10
2019,05,26,09,25,15.20
2019,05,26,09,26,15.30
2019,05,26,09,27,15.40
2019,05,26,09,28,15.50
2019,05,26,09,29,15.60
2019,05,26,09,30,15.70
2019,05,26,09,31,15.70
2019,05,26,09,32,15.70
2019,05,26,09,33,15.80
2019,05,26,09,34,15.80
2019,05,26,09,35,15.90
2019,05,26,09,36,16.00
2019,05,26,09,37,16.00
2019,05,26,09,38,16.10
2019,05,26,09,39,16.10
2019,05,26,09,40,16.20
2019,05,26,09,41,16.20
2019,05,26,09,42,16.30
2019,05,26,09,43,16.30
2019,05,26,09,44,16.40
2019,05,26,09,45,16.60
2019,05,26,09,46,16.70
2019,05,26,09,47,16.80
2019,05,26,09,48,16.90
2019,05,26,09,49,16.90
2019,05,26,09,50,17.00
2019,05,26,09,51,17.10
2019,05,26,09,52,17.10
2019,05,26,09,53,17.10
2019,05,26,09,54,17.10
2019,05,26,09,55,17.20
2019,05,26,09,56,17.20
2019,05,26,09,57,17.20
2019,05,26,09,58,17.30
2019,05,26,09,59,17.30
2019,05,26,10,00,17.40
2019,05,26,10,01,17.40
2019,05,26,10,02,17.40
2019,05,26,10,03,17.50
2019,05,26,10,04,17.60
2019,05,26,10,05,17.70
2019,05,26,10,06,17.70
2019,05,26,10,07,17.80
2019,05,26,10,08,18.00
2019,05,26,10,09,18.10
2019,05,26,10,10,18.20
2019,05,26,10,11,18.40
2019,05,26,10,12,18.50
2019,05,26,10,13,18.60
2019,05,26,10,14,18.70
2019,05,26,10,15,18.70
2019,05,26,10,16,18.70
2019,05,26,10,17,18.70
2019,05,26,10,18,18.70
2019,05,26,10,19,18.80
2019,05,26,10,20,18.90
2019,05,26,10,21,18.90
2019,05,26,10,22,19.00
2019,05,26,10,23,19.00
2019,05,26,10,24,19.00
2019,05,26,10,25,19.10
2019,05,26,10,26,19.10
2019,05,26,10,27,19.20
2019,05,26,10,28,19.20
2019,05,26,10,29,19.30
2019,05,26,10,30,19.30
2019,05,26,10,31,19.40
2019,05,26,10,32,19.40
2019,05,26,10,33,19.40
2019,05,26,10,34,19.50
2019,05,26,10,35,19.60
2019,05,26,10,36,19.70
2019,05,26,10,37,19.80
2019,05,26,10,38,19.90
2019,05,26,10,39,20.00
2019,05,26,10,40,20.10
2019,05,26,10,41,20.20
2019,05,26,10,42,20.20
2019,05,26,10,43,20.20
2019,05,26,10,44,20.30
2019,05,26,10,45,20.30
2019,05,26,10,46,20.30
2019,05,26,10,47,20.40
2019,05,26,10,48,20.40
2019,05,26,10,49,20.50
2019,05,26,10,50,20.50
2019,05,26,10,51,20.60
2019,05,26,10,52,20.60
2019,05,26,10,53,20.60
2019,05,26,10,54,20.70
2019,05,26,10,55,20.80
2019,05,26,10,56,20.80
2019,05,26,10,57,20.90
2019,05,26,10,58,20.90
2019,05,26,10,59,20.80
2019,05,26,11,00,20.80
2019,05,26,11,01,20.70
2019,05,26,11,02,20.70
2019,05,26,11,03,20.60
2019,05,26,11,04,20.60
2019,05,26,11,05,20.60
2019,05,26,11,06,20.60
2019,05,26,11,07,20.60
2019,05,26,11,08,20.70
2019,05,26,11,09,20.70
2019,05,26,11,10,20.80
2019,05,26,11,11,20.90
2019,05,26,11,12,20.90
2019,05,26,11,13,20.90
2019,05,26,11,14,21.00
2019,05,26,11,15,21.00
2019,05,26,11,16,21.10
2019,05,26,11,17,21.10
2019,05,26,11,18,21.10
2019,05,26,11,19,21.20
2019,05,26,11,20,21.30
2019,05,26,11,21,21.30
2019,05,26,11,22,21.40
2019,05,26,11,23,21.50
2019,05,26,11,24,21.60
2019,05,26,11,25,21.60
2019,05,26,11,26,21.70
2019,05,26,11,27,21.80
2019,05,26,11,28,21.90
2019,05,26,11,29,21.90
2019,05,26,11,30,21.90
2019,05,26,11,31,21.90
2019,05,26,11,32,22.00
2019,05,26,11,33,22.00
2019,05,26,11,34,22.10
2019,05,26,11,35,22.20
2019,05,26,11,36,22.30
2019,05,26,11,37,22.40
2019,05,26,11,38,22.40
2019,05,26,11,39,22.50
2019,05,26,11,40,22.60
2019,05,26,11,41,22.60
2019,05,26,11,42,22.70
2019,05,26,11,43,22.80
2019,05,26,11,44,22.80
2019,05,26,11,45,22.80
2019,05,26,11,46,22.80
2019,05,26,11,47,22.90
2019,05,26,11,48,22.90
2019,05,26,11,49,22.90
2019,05,26,11,50,23.00
2019,05,26,11,51,23.00
2019,05,26,11,52,23.10
2019,05,26,11,53,23.10
2019,05,26,11,54,23.00
2019,05,26,11,55,23.00
2019,05,26,11,56,22.90
2019,05,26,11,57,22.90
2019,05,26,11,58,22.90
2019,05,26,11,59,22.90
2019,05,26,12,00,23.00
2019,05,26,12,01,23.00
2019,05,26,12,02,23.10
2019,05,26,12,03,23.10
2019,05,26,12,04,23.00
2019,05,26,12,05,23.00
2019,05,26,12,06,22.90
2019,05,26,12,07,22.90
2019,05,26,12,08,22.90
2019,05,26,12,09,22.90
2019,05,26,12,10,22.80
2019,05,26,12,11,22.70
2019,05,26,12,12,22.60
2019,05,26,12,13,22.60
2019,05,26,12,14,22.60
2019,05,26,12,15,22.60
2019,05,26,12,16,22.60
2019,05,26,12,17,22.60
2019,05,26,12,18,22.60
2019,05,26,12,19,22.60
2019,05,26,12,20,22.70
2019,05,26,12,21,22.70
2019,05,26,12,22,22.70
2019,05,26,12,23,22.60
2019,05,26,12,24,22.60
2019,05,26,12,25,22.60
2019,05,26,12,26,22.60
2019,05,26,12,27,22.50
2019,05,26,12,28,22.30
2019,05,26,12,29,22.30
2019,05,26,12,30,22.30
2019,05,26,12,31,22.30
2019,05,26,12,32,22.30
2019,05,26,12,33,22.30
2019,05,26,12,34,22.40
2019,05,26,12,35,22.40
2019,05,26,12,36,22.40
2019,05,26,12,37,22.40
2019,05,26,12,38,22.40
2019,05,26,12,39,22.40
2019,05,26,12,40,22.40
2019,05,26,12,41,22.40
2019,05,26,12,42,22.30
2019,05,26,12,43,22.20
2019,05,26,12,44,22.20
2019,05,26,12,45,22.10
2019,05,26,12,46,22.00
2019,05,26,12,47,22.00
2019,05,26,12,48,21.90
2019,05,26,12,49,21.90
2019,05,26,12,50,21.80
2019,05,26,12,51,21.80
2019,05,26,12,52,21.70
2019,05,26,12,53,21.70
2019,05,26,12,54,21.60
2019,05,26,12,55,21.60
2019,05,26,12,56,21.50
2019,05,26,12,57,21.40
2019,05,26,12,58,21.40
2019,05,26,12,59,21.30
2019,05,26,13,00,21.20
2019,05,26,13,01,21.20
2019,05,26,13,02,21.20
2019,05,26,13,03,21.20
2019,05,26,13,04,21.20
2019,05,26,13,05,21.20
2019,05,26,13,06,21.20
2019,05,26,13,07,21.20
2019,05,26,13,08,21.30
2019,05,26,13,09,21.30
2019,05,26,13,10,21.40
2019,05,26,13,11,21.50
2019,05,26,13,12,21.60
2019,05,26,13,13,21.50
2019,05,26,13,14,21.50
2019,05,26,13,15,21.50
2019,05,26,13,16,21.40
2019,05,26,13,17,21.30
2019,05,26,13,18,21.30
2019,05,26,13,19,21.30
2019,05,26,13,20,21.20
2019,05,26,13,21,21.20
2019,05,26,13,22,21.20
2019,05,26,13,23,21.10
2019,05,26,13,24,21.10
2019,05,26,13,25,21.20
2019,05,26,13,26,21.20
2019,05,26,13,27,21.20
2019,05,26,13,28,21.20
2019,05,26,13,29,21.20
2019,05,26,13,30,21.30
2019,05,26,13,31,21.30
2019,05,26,13,32,21.50
2019,05,26,13,33,21.60
2019,05,26,13,34,21.70
2019,05,26,13,35,21.80
2019,05,26,13,36,21.80
2019,05,26,13,37,21.80
2019,05,26,13,38,21.90
2019,05,26,13,39,21.90
2019,05,26,13,40,22.00
2019,05,26,13,41,22.10
2019,05,26,13,42,22.10
2019,05,26,13,43,22.10
2019,05,26,13,44,22.10
2019,05,26,13,45,22.10
2019,05,26,13,46,22.10
2019,05,26,13,47,22.20
2019,05,26,13,48,22.20
2019,05,26,13,49,22.20
2019,05,26,13,50,22.30
2019,05,26,13,51,22.30
2019,05,26,13,52,22.30
2019,05,26,13,53,22.20
2019,05,26,13,54,22.10
2019,05,26,13,55,22.00
2019,05,26,13,56,21.90
2019,05,26,13,57,21.90
2019,05,26,13,58,21.80
2019,05,26,13,59,21.80
2019,05,26,14,00,21.80
2019,05,26,14,01,21.80
2019,05,26,14,02,21.70
2019,05,26,14,03,21.70
2019,05,26,14,04,21.60
2019,05,26,14,05,21.60
2019,05,26,14,06,21.50
2019,05,26,14,07,21.40
2019,05,26,14,08,21.40
2019,05,26,14,09,21.30
2019,05,26,14,10,21.30
2019,05,26,14,11,21.30
2019,05,26,14,12,21.20
2019,05,26,14,13,21.20
2019,05,26,14,14,21.20
2019,05,26,14,15,21.20
2019,05,26,14,16,21.20
2019,05,26,14,17,21.20
2019,05,26,14,18,21.10
2019,05,26,14,19,21.10
2019,05,26,14,20,21.10
2019,05,26,14,21,21.10
2019,05,26,14,22,21.10
2019,05,26,14,23,21.20
2019,05,26,14,24,21.20
2019,05,26,14,25,21.20
2019,05,26,14,26,21.20
2019,05,26,14,27,21.20
2019,05,26,14,28,21.20
2019,05,26,14,29,21.20
2019,05,26,14,30,21.20
2019,05,26,14,31,21.20
2019,05,26,14,32,21.20
2019,05,26,14,33,21.10
2019,05,26,14,34,21.10
2019,05,26,14,35,21.00
2019,05,26,14,36,21.00
2019,05,26,14,37,20.90
2019,05,26,14,38,20.90
2019,05,26,14,39,20.90
2019,05,26,14,40,20.90
2019,05,26,14,41,20.80
2019,05,26,14,42,20.80
2019,05,26,14,43,20.80
2019,05,26,14,44,20.70
2019,05,26,14,45,20.70
2019,05,26,14,46,20.70
2019,05,26,14,47,20.70
2019,05,26,14,48,20.80
2019,05,26,14,49,20.80
2019,05,26,14,50,20.80
2019,05,26,14,51,20.80
2019,05,26,14,52,20.80
2019,05,26,14,53,20.90
2019,05,26,14,54,20.90
2019,05,26,14,55,20.90
2019,05,26,14,56,20.90
2019,05,26,14,57,20.90
2019,05,26,14,58,20.80
2019,05,26,14,59,20.90
2019,05,26,15,00,20.90
2019,05,26,15,01,20.90
2019,05,26,15,02,20.90
2019,05,26,15,03,20.80
2019,05,26,15,04,20.80
2019,05,26,15,05,20.80
2019,05,26,15,06,20.80
2019,05,26,15,07,20.70
2019,05,26,15,08,20.70
2019,05,26,15,09,20.70
2019,05,26,15,10,20.70
2019,05,26,15,11,20.70
2019,05,26,15,12,20.70
2019,05,26,15,13,20.70
2019,05,26,15,14,20.70
2019,05,26,15,15,20.80
2019,05,26,15,16,20.80
2019,05,26,15,17,20.90
2019,05,26,15,18,21.00
2019,05,26,15,19,21.10
2019,05,26,15,20,21.20
2019,05,26,15,21,21.20
2019,05,26,15,22,21.20
2019,05,26,15,23,21.30
2019,05,26,15,24,21.30
2019,05,26,15,25,21.30
2019,05,26,15,26,21.30
2019,05,26,15,27,21.40
2019,05,26,15,28,21.40
2019,05,26,15,29,21.40
2019,05,26,15,30,21.50
2019,05,26,15,31,21.50
2019,05,26,15,32,21.60
2019,05,26,15,33,21.70
2019,05,26,15,34,21.70
2019,05,26,15,35,21.80
2019,05,26,15,36,21.80
2019,05,26,15,37,21.80
2019,05,26,15,38,21.90
2019,05,26,15,39,22.00
2019,05,26,15,40,22.10
2019,05,26,15,41,22.20
2019,05,26,15,42,22.20
2019,05,26,15,43,22.30
2019,05,26,15,44,22.30
2019,05,26,15,45,22.40
2019,05,26,15,46,22.40
2019,05,26,15,47,22.50
2019,05,26,15,48,22.50
2019,05,26,15,49,22.60
2019,05,26,15,50,22.60
2019,05,26,15,51,22.70
2019,05,26,15,52,22.70
2019,05,26,15,53,22.80
2019,05,26,15,54,22.80
2019,05,26,15,55,22.80
2019,05,26,15,56,22.90
2019,05,26,15,57,23.00
2019,05,26,15,58,23.10
2019,05,26,15,59,23.20
2019,05,26,16,00,23.30
2019,05,26,16,01,23.40
2019,05,26,16,02,23.50
2019,05,26,16,03,23.50
2019,05,26,16,04,23.60
2019,05,26,16,05,23.60
2019,05,26,16,06,23.70
2019,05,26,16,07,23.70
2019,05,26,16,08,23.80
2019,05,26,16,09,23.80
2019,05,26,16,10,23.80
2019,05,26,16,11,23.90
2019,05,26,16,12,23.90
2019,05,26,16,13,24.00
2019,05,26,16,14,24.00
2019,05,26,16,15,24.10
2019,05,26,16,16,24.10
2019,05,26,16,17,24.10
2019,05,26,16,18,24.10
2019,05,26,16,19,24.20
2019,05,26,16,20,24.20
2019,05,26,16,21,24.20
2019,05,26,16,22,24.20
2019,05,26,16,23,24.20
2019,05,26,16,24,24.20
2019,05,26,16,25,24.20
2019,05,26,16,26,24.20
2019,05,26,16,27,24.20
2019,05,26,16,28,24.10
2019,05,26,16,29,24.10
2019,05,26,16,30,24.00
2019,05,26,16,31,24.00
2019,05,26,16,32,23.90
2019,05,26,16,33,23.90
2019,05,26,16,34,23.80
2019,05,26,16,35,23.80
2019,05,26,16,36,23.80
2019,05,26,16,37,23.80
2019,05,26,16,38,23.90
2019,05,26,16,39,23.90
2019,05,26,16,40,23.90
2019,05,26,16,41,23.90
2019,05,26,16,42,23.90
2019,05,26,16,43,24.00
2019,05,26,16,44,24.00
2019,05,26,16,45,24.00
2019,05,26,16,46,24.10
2019,05,26,16,47,24.10
2019,05,26,16,48,24.10
2019,05,26,16,49,24.10
2019,05,26,16,50,24.20
2019,05,26,16,51,24.20
2019,05,26,16,52,24.20
2019,05,26,16,53,24.20
2019,05,26,16,54,24.20
2019,05,26,16,55,24.20
2019,05,26,16,56,24.20
2019,05,26,16,57,24.30
2019,05,26,16,58,24.30
2019,05,26,16,59,24.30
2019,05,26,17,00,24.30
2019,05,26,17,01,24.30
2019,05,26,17,02,24.30
2019,05,26,17,03,24.30
2019,05,26,17,04,24.40
2019,05,26,17,05,24.40
2019,05,26,17,06,24.40
2019,05,26,17,07,24.40
2019,05,26,17,08,24.40
2019,05,26,17,09,24.50
2019,05,26,17,10,24.50
2019,05,26,17,11,24.50
2019,05,26,17,12,24.60
2019,05,26,17,13,24.60
2019,05,26,17,14,24.60
2019,05,26,17,15,24.60
2019,05,26,17,16,24.60
2019,05,26,17,17,24.60
2019,05,26,17,18,24.60
2019,05,26,17,19,24.60
2019,05,26,17,20,24.60
2019,05,26,17,21,24.50
2019,05,26,17,22,24.50
2019,05,26,17,23,24.40
2019,05,26,17,24,24.40
2019,05,26,17,25,24.30
2019,05,26,17,26,24.30
2019,05,26,17,27,24.30
2019,05,26,17,28,24.30